Weather History for ESMK - April, 2013

Change the Weather History Date:

Monday, April 1, 2013

  Actual Average Record
Temperature  
Mean Temperature 34 °F -  
Max Temperature 46 °F - - ()
Min Temperature 21 °F - - ()
Degree Days  
Heating Degree Days 32    
Moisture  
Dew Point 20 °F    
Average Humidity 71    
Maximum Humidity 100    
Minimum Humidity 25    
Precipitation  
Precipitation 0.00 in - - ()
Sea Level Pressure  
Sea Level Pressure 29.88 in    
Wind  
Wind Speed 4 mph ()    
Max Wind Speed 16 mph    
Max Gust Speed 22 mph    
Visibility 6.1 miles    
Events      
T = Trace of Precipitation, MM = Missing Value Source: Averaged Metar Reports

Daily Weather History Graph

Daily Weather History Graph

Search for Another Location

Airport or City:

Trip Planner

Search our weather history database for the weather conditions in past years. The results will help you decide how hot, cold, wet, or windy it might be!

Date:

Astronomy

Apr. 01, 2013 Rise Set
Actual Time 6:34 AM CEST 7:41 PM CEST
Civil Twilight 5:56 AM CEST 8:20 PM CEST
Nautical Twilight 5:10 AM CEST 9:06 PM CEST
Astronomical Twilight 4:18 AM CEST 9:58 PM CEST
Moon 1:20 AM CEST (4/1) 9:13 AM CEST (4/1)
Length of Visible Light 14h 23m
Length of Day
13h 07m
Waning Gibbous, 70% of the Moon is Illuminated
Apr 1
Waning Gibbous
Apr 3
Last Quarter
Apr 10
New
Apr 18
First Quarter
Apr 25
Full

Hourly Weather History & Observations

Time (CEST) Temp. Windchill Dew Point Humidity Pressure Visibility Wind Dir Wind Speed Gust Speed Precip Events Conditions
12:20 AM 23.0 °F - 23.0 °F 100% 29.92 in - WNW 2.3 mph - N/A   Unknown
12:50 AM 23.0 °F - 23.0 °F 100% 29.92 in 3.7 mi WNW 2.3 mph - N/A   Unknown
1:20 AM 23.0 °F - 23.0 °F 100% 29.89 in 5.6 mi NNW 2.3 mph - N/A   Unknown
1:50 AM 21.2 °F 16.4 °F 21.2 °F 100% 29.89 in 5.6 mi WNW 3.5 mph - N/A   Unknown
2:20 AM 21.2 °F 16.4 °F 21.2 °F 100% 29.89 in 6.2 mi West 3.5 mph - N/A   Unknown
2:50 AM 21.2 °F 16.4 °F 21.2 °F 100% 29.89 in 6.2 mi WNW 3.5 mph - N/A   Unknown
3:20 AM 21.2 °F 16.4 °F 21.2 °F 100% 29.89 in 6.2 mi WNW 3.5 mph - N/A   Unknown
3:50 AM 23.0 °F 18.4 °F 23.0 °F 100% 29.89 in 6.2 mi WNW 3.5 mph - N/A   Unknown
4:20 AM 23.0 °F 18.4 °F 23.0 °F 100% 29.89 in 6.2 mi WNW 3.5 mph - N/A   Unknown
4:50 AM 23.0 °F 17.0 °F 23.0 °F 100% 29.89 in 6.2 mi WNW 4.6 mph - N/A   Unknown
5:20 AM 21.2 °F 14.9 °F 21.2 °F 100% 29.89 in 6.2 mi WNW 4.6 mph - N/A   Unknown
5:50 AM 21.2 °F 14.9 °F 19.4 °F 93% 29.89 in 6.2 mi WNW 4.6 mph - N/A   Unknown
6:20 AM 23.0 °F 17.0 °F 23.0 °F 100% 29.86 in 6.2 mi NW 4.6 mph - N/A   Unknown
6:50 AM 23.0 °F 17.0 °F 21.2 °F 93% 29.86 in 6.2 mi WNW 4.6 mph - N/A   Unknown
7:20 AM 21.2 °F - 19.4 °F 93% 29.86 in 6.2 mi WNW 2.3 mph - N/A   Unknown
7:50 AM 23.0 °F - 21.2 °F 93% 29.86 in 6.2 mi Variable 1.2 mph - N/A   Unknown
8:20 AM 26.6 °F - 24.8 °F 93% 29.86 in 6.2 mi North 2.3 mph - N/A   Unknown
8:50 AM 26.6 °F 20.0 °F 24.8 °F 93% 29.86 in 6.2 mi North 5.8 mph - N/A   Unknown
9:20 AM 28.4 °F 23.3 °F 24.8 °F 86% 29.86 in 6.2 mi NNE 4.6 mph - N/A   Unknown
9:50 AM 30.2 °F 26.7 °F 24.8 °F 80% 29.86 in 6.2 mi North 3.5 mph - N/A   Unknown
10:20 AM 33.8 °F 29.6 °F 26.6 °F 75% 29.86 in 6.2 mi ENE 4.6 mph - N/A   Unknown
10:50 AM 33.8 °F 30.8 °F 24.8 °F 70% 29.86 in 6.2 mi NW 3.5 mph - N/A   Unknown
11:50 AM 37.4 °F 32.8 °F 19.4 °F 48% 29.86 in - North 5.8 mph - N/A   Clear
12:50 PM 42.8 °F 39.3 °F 15.8 °F 34% 29.86 in - East 5.8 mph - N/A   Clear
1:20 PM 42.8 °F 36.2 °F 12.2 °F 29% 29.86 in 6.2 mi NE 12.7 mph - N/A   Unknown
1:50 PM 42.8 °F 35.4 °F 14.0 °F 31% 29.86 in 6.2 mi NNE 15.0 mph - N/A   Unknown
2:20 PM 44.6 °F 39.2 °F 14.0 °F 29% 29.86 in 6.2 mi NNE 10.4 mph - N/A   Unknown
2:50 PM 44.6 °F 38.1 °F 14.0 °F 29% 29.86 in 6.2 mi NNE 13.8 mph - N/A   Unknown
3:20 PM 46.4 °F 41.5 °F 12.2 °F 25% 29.83 in 6.2 mi NNE 10.4 mph 21.9 mph N/A   Unknown
3:50 PM 44.6 °F 37.4 °F 12.2 °F 27% 29.83 in - North 16.1 mph - N/A   Clear
4:20 PM 44.6 °F 38.4 °F 10.4 °F 25% 29.83 in - NE 12.7 mph - N/A   Clear
4:50 PM 44.6 °F 38.4 °F 10.4 °F 25% 29.83 in - NNE 12.7 mph - N/A   Clear
5:20 PM 44.6 °F 40.7 °F 12.2 °F 27% 29.83 in - ESE 6.9 mph - N/A   Clear
5:50 PM 44.6 °F 42.2 °F 14.0 °F 29% 29.86 in - ESE 4.6 mph - N/A   Clear
6:20 PM 44.6 °F 42.2 °F 15.8 °F 31% 29.86 in - ESE 4.6 mph - N/A   Clear
6:50 PM 41.0 °F 38.0 °F 19.4 °F 42% 29.86 in - ESE 4.6 mph - N/A   Clear
7:20 PM 37.4 °F 33.8 °F 21.2 °F 52% 29.86 in - ESE 4.6 mph - N/A   Clear
7:50 PM 33.8 °F 30.8 °F 21.2 °F 60% 29.86 in 6.2 mi South 3.5 mph - N/A   Unknown
8:20 PM 32.0 °F 25.6 °F 24.8 °F 75% 29.89 in 6.2 mi SW 6.9 mph - N/A   Unknown
8:50 PM 32.0 °F 28.7 °F 23.0 °F 69% 29.89 in 6.2 mi SSE 3.5 mph - N/A   Unknown
9:20 PM 28.4 °F 24.6 °F 23.0 °F 80% 29.92 in 6.2 mi SE 3.5 mph - N/A   Unknown
9:50 PM 26.6 °F 22.6 °F 23.0 °F 86% 29.92 in 6.2 mi SE 3.5 mph - N/A   Unknown
10:20 PM 26.6 °F 22.6 °F 23.0 °F 86% 29.92 in 6.2 mi SSE 3.5 mph - N/A   Unknown
10:50 PM 26.6 °F 22.6 °F 23.0 °F 86% 29.92 in 6.2 mi South 3.5 mph - N/A   Unknown
11:20 PM 26.6 °F 22.6 °F 24.8 °F 93% 29.92 in 6.2 mi South 3.5 mph - N/A   Unknown
11:50 PM 24.8 °F 20.5 °F 23.0 °F 93% 29.95 in 6.2 mi West 3.5 mph - N/A   Unknown